User: anonymous
Location: Unspecified
(0.0000°N, 0.0000°E)
Time: 07:41:03
(UTC+00:00)
Language:

Aussat K1 - Orbit

View from above orbital plane
View from above orbital plane
View from above satellite
View from above satellite

Ground track
Ground track

The orbit data is extracted from the following two-line orbital elements,

1 15993U 85076B   14111.16034757 -.00000043  00000-0  00000+0 0  7753
2 15993 014.7445 019.8703 0000701 346.0759 272.1673 00.99767056 75294
Epoch (UTC): 21 April 2014 03:50:54
Eccentricity: 0.0000701
inclination: 14.7445°
perigee height: 35925 km
apogee height: 35931 km
right ascension of ascending node: 19.8703°
argument of perigee: 346.0759°
revolutions per day: 0.99767056
mean anomaly at epoch: 272.1673°
orbit number at epoch: 7529

The dashed part of the orbit path shows where the satellite is in the earth's shadow,  

DLR